Vertical_Velocity
1 1 0 -0 -1 -2 -2 -2 -2 -3 -3 -4 -2 -1 0 1 0 -0 -1 -1 -1 -1 -0 0 2 2 2 2 2 1 0 -1 -1 -0 -0 -1 -1 -1 -1 -1 0 1 2 3 4 5 4 3 1 0 -0 -0 -0 -0 -0 -0 -0 0 0 0 1 1 2 3 2 2 0 -3 -5
1 1 0 0 -1 -1 -2 -2 -2 -3 -3 -3 -2 -1 -0 0 0 0 -0 -0 -1 -1 -1 0 1 2 2 2 2 1 0 0 -0 -0 -0 -0 -1 -1 -1 -1 -0 1 1 2 3 3 3 3 1 -0 -1 -2 -2 -2 -1 -1 -0 -0 -0 -0 -0 1 2 4 4 3 1 -3 -5
0 1 1 1 0 -0 -1 -2 -3 -3 -3 -3 -2 -2 -1 -0 -0 -0 -0 -0 -0 -1 -1 -0 1 2 2 2 1 1 1 1 1 0 -0 -0 -0 -0 -1 -1 -0 -0 0 1 1 2 2 1 0 -0 -1 -2 -2 -1 -1 -1 -0 -0 -1 -1 -0 1 3 4 4 3 1 -2 -4
-1 -0 1 1 1 0 -0 -1 -3 -3 -3 -3 -3 -2 -2 -1 -0 -1 -1 -0 -1 -1 -1 -1 -0 1 2 2 2 2 1 1 1 0 0 0 -0 -0 -1 -1 -1 -0 0 0 0 1 1 1 1 1 1 1 1 1 1 0 1 0 -0 -1 -0 1 2 3 3 2 -0 -3 -4
-3 -1 -1 -0 -0 -0 -1 -1 -2 -2 -3 -3 -3 -3 -3 -2 -1 -1 -2 -2 -2 -2 -1 -1 -2 -1 1 2 2 2 1 1 1 1 1 1 0 0 0 -0 -0 0 1 1 1 1 1 1 1 2 2 2 3 3 3 2 2 2 1 -0 -1 -1 0 2 2 1 -0 -2 -2
-4 -3 -2 -1 -1 -1 -1 -1 -1 -1 -2 -3 -3 -3 -3 -2 -2 -2 -2 -3 -2 -2 -2 -3 -3 -2 -1 1 2 2 2 1 1 1 1 1 1 1 1 1 1 1 1 1 1 2 1 1 2 2 2 2 3 3 3 4 3 3 2 -0 -1 -1 -0 1 2 2 1 -1 -2
-4 -4 -3 -2 -2 -1 -1 -1 -1 -1 -1 -2 -2 -2 -2 -2 -2 -2 -2 -2 -2 -2 -3 -3 -3 -3 -3 -2 0 1 1 2 2 2 1 1 1 1 1 2 2 1 1 2 2 2 2 2 2 2 2 2 2 3 3 3 3 2 1 0 -1 -1 0 1 2 2 2 -0 -2
-4 -4 -4 -3 -3 -2 -1 -1 -1 -1 -1 -1 -1 -1 -1 -2 -2 -2 -1 -1 -2 -2 -2 -2 -2 -3 -4 -4 -2 -1 1 1 2 2 2 2 1 1 1 2 2 2 2 2 2 3 3 3 2 2 2 2 2 2 2 3 3 2 2 1 1 0 1 1 2 2 2 -0 -2
-4 -4 -4 -4 -3 -3 -2 -2 -2 -2 -1 -1 -1 -1 -2 -3 -2 -2 -1 -2 -2 -1 -1 -2 -2 -3 -4 -5 -4 -2 -0 1 2 2 2 2 2 1 1 2 2 3 3 2 2 3 4 4 4 3 3 2 1 1 1 2 3 3 2 2 2 1 1 1 1 2 2 0 -1
-5 -5 -4 -4 -4 -3 -3 -3 -2 -2 -2 -2 -1 -1 -2 -2 -2 -1 -1 -1 -1 -1 -2 -2 -2 -2 -3 -4 -5 -4 -2 -0 0 1 2 2 2 2 1 1 2 3 3 3 3 3 4 4 4 4 4 3 2 2 2 2 3 3 3 3 3 2 2 1 1 2 2 1 -0
-5 -5 -5 -4 -4 -4 -4 -3 -3 -2 -2 -2 -2 -2 -2 -2 -1 -1 -1 -1 -2 -2 -2 -1 -1 -2 -2 -3 -4 -5 -5 -3 -1 -0 0 1 2 2 2 2 2 3 3 3 4 4 4 4 4 4 4 4 3 3 3 2 3 3 3 3 4 3 2 1 1 2 2 1 0
-4 -5 -5 -5 -4 -4 -4 -3 -3 -3 -3 -2 -2 -2 -2 -2 -1 -1 -1 -2 -2 -1 -0 0 -1 -1 -1 -1 -2 -4 -5 -5 -3 -1 -0 0 0 1 1 2 2 2 3 4 4 5 5 4 4 4 4 4 4 4 4 3 3 3 3 4 4 4 3 2 2 2 2 2 1
-3 -4 -4 -5 -5 -5 -4 -4 -3 -3 -3 -2 -2 -2 -2 -2 -2 -2 -2 -2 -1 0 1 -0 -1 -1 -0 -0 -1 -2 -3 -5 -4 -3 -2 -0 -0 -0 0 1 2 2 2 3 4 5 5 5 4 4 3 4 4 5 5 4 4 3 3 3 4 4 3 3 3 3 3 3 2
-2 -3 -4 -4 -5 -5 -5 -4 -4 -4 -3 -3 -2 -2 -2 -2 -2 -3 -3 -2 -1 -0 -0 -1 -1 0 1 0 -1 -1 -1 -2 -4 -4 -3 -2 -1 -1 -0 1 2 2 1 1 3 4 5 5 5 4 4 3 4 5 5 5 4 4 3 3 3 4 4 4 4 4 4 3 3
-1 -2 -3 -3 -4 -5 -5 -5 -5 -5 -4 -3 -3 -3 -3 -2 -2 -2 -3 -2 -2 -2 -2 -2 -0 1 1 0 -0 -0 -0 -1 -2 -3 -3 -3 -2 -2 -1 -0 2 3 3 1 2 3 4 5 4 4 4 4 4 4 5 5 5 4 4 3 3 3 4 4 4 4 4 3 3
-1 -1 -2 -2 -3 -4 -5 -5 -5 -5 -5 -4 -4 -3 -3 -2 -2 -2 -2 -2 -2 -3 -3 -2 -0 1 1 -0 -0 0 0 -0 -1 -2 -2 -3 -3 -3 -3 -3 -0 2 4 3 2 3 3 4 4 4 4 4 3 3 4 5 5 5 4 4 4 4 4 4 5 5 5 4 3
-1 -1 -1 -1 -2 -3 -4 -5 -5 -5 -5 -5 -4 -4 -4 -3 -3 -3 -2 -2 -2 -3 -4 -3 -1 -0 -0 -0 0 1 1 0 -0 -0 -1 -2 -3 -3 -3 -4 -3 -1 1 2 2 3 3 3 3 4 4 4 3 3 3 4 4 5 5 5 4 4 4 5 5 5 5 4 3
-1 -1 -1 -1 -1 -2 -3 -4 -4 -5 -5 -5 -5 -5 -4 -4 -4 -3 -3 -2 -2 -3 -3 -2 -2 -1 -1 -0 1 1 1 0 0 0 -0 -1 -2 -3 -3 -3 -4 -4 -3 -1 1 2 2 2 2 3 4 4 4 3 3 3 4 4 5 5 4 4 4 4 5 5 6 5 4
-1 -1 -1 -1 -1 -1 -2 -3 -4 -4 -5 -5 -5 -5 -4 -4 -4 -4 -3 -3 -2 -2 -2 -2 -2 -2 -2 -0 1 1 1 0 1 1 0 -0 -1 -2 -3 -3 -3 -4 -4 -4 -2 -1 1 1 2 2 3 4 3 3 3 3 3 4 4 4 4 4 4 3 4 5 5 5 5
-1 -1 -1 -1 -0 -1 -1 -2 -3 -3 -4 -4 -4 -4 -4 -4 -4 -4 -4 -3 -3 -3 -2 -2 -2 -2 -2 -1 -0 0 0 1 1 1 0 0 -0 -1 -1 -2 -2 -3 -4 -4 -3 -3 -2 -1 1 2 2 3 2 2 2 2 2 3 3 4 4 4 3 3 3 4 5 5 5
-0 -1 -1 -1 -0 -0 -1 -1 -2 -3 -3 -3 -4 -4 -4 -4 -4 -4 -4 -3 -3 -3 -3 -2 -2 -2 -2 -1 -1 -1 -0 1 1 1 0 1 0 0 -0 -1 -2 -3 -3 -3 -3 -3 -3 -3 -1 0 1 2 1 1 1 1 1 1 2 3 3 3 3 3 3 3 4 5 5
-0 -0 -0 -1 -0 -0 -0 -1 -2 -2 -3 -3 -3 -3 -3 -3 -3 -3 -4 -4 -4 -3 -3 -2 -2 -2 -2 -2 -2 -1 -1 -0 -0 0 0 1 1 1 1 -0 -1 -2 -3 -3 -3 -3 -3 -3 -2 -1 0 1 0 0 0 0 0 0 1 1 2 2 2 3 3 3 3 4 5
-0 -0 0 0 0 -0 -0 -1 -2 -2 -3 -3 -3 -3 -3 -3 -3 -3 -3 -3 -3 -3 -3 -2 -3 -3 -3 -2 -2 -2 -2 -1 -1 -0 0 0 1 1 1 0 -1 -1 -2 -3 -3 -4 -4 -3 -3 -2 -1 -1 -0 -0 -0 -0 -0 -0 -0 -0 -0 1 1 2 2 2 3 3 4
-0 -0 1 1 1 0 -0 -1 -2 -2 -3 -3 -3 -2 -2 -2 -2 -2 -3 -3 -3 -3 -2 -2 -2 -2 -2 -2 -2 -2 -2 -2 -1 -0 0 0 0 1 1 1 0 0 -0 -1 -3 -4 -5 -4 -4 -3 -3 -2 -1 -1 -1 -0 -0 -0 -0 -0 -1 -0 -0 -0 0 1 1 2 3
-1 0 1 1 1 1 0 -1 -1 -2 -3 -3 -3 -2 -2 -2 -2 -2 -2 -3 -3 -2 -2 -2 -2 -2 -2 -2 -2 -2 -2 -2 -2 -1 -1 -0 0 1 1 2 1 1 1 -0 -3 -4 -4 -4 -4 -4 -4 -3 -3 -2 -1 -1 -0 0 0 0 -0 -0 -1 -1 -1 -1 -0 0 1
-1 0 1 2 1 1 0 -0 -1 -2 -2 -3 -3 -2 -2 -1 -1 -1 -2 -2 -3 -3 -2 -2 -1 -1 -1 -1 -1 -2 -2 -2 -2 -2 -1 -1 -0 1 1 2 3 3 2 1 -1 -2 -2 -3 -3 -3 -3 -3 -3 -2 -2 -1 -0 0 1 0 0 -0 -0 -1 -1 -2 -1 -1 -0
-1 0 1 2 1 1 1 0 -1 -1 -2 -2 -2 -2 -2 -1 -1 -1 -1 -2 -2 -3 -3 -2 -2 -1 -1 -1 -1 -1 -1 -1 -1 -2 -2 -1 -1 0 1 2 3 3 3 2 0 -0 -1 -1 -1 -2 -2 -2 -2 -2 -2 -2 -1 -0 -0 0 0 0 0 -0 -0 -1 -1 -1 -1
-1 0 1 1 1 1 1 0 -0 -0 -1 -2 -2 -2 -2 -1 -1 -1 -1 -1 -2 -2 -3 -3 -2 -2 -1 -1 -1 -0 -0 -0 -1 -1 -1 -1 -1 -1 0 1 2 3 3 2 2 1 1 0 -0 -0 0 0 0 -0 -1 -1 -1 -2 -1 -1 -0 -0 0 0 0 0 -0 -1 -1
-1 -0 0 1 1 1 1 1 0 -0 -1 -1 -2 -2 -2 -1 -1 -1 -1 -1 -2 -2 -2 -2 -2 -2 -2 -1 -1 -1 -0 -0 -0 0 0 -0 -1 -1 -1 -0 1 2 2 3 2 2 1 1 1 1 2 2 2 2 1 1 -0 -1 -2 -2 -1 -1 -1 -0 0 0 0 1 1
-2 -1 -0 1 1 1 1 1 0 0 -0 -1 -1 -1 -1 -1 -1 -1 -1 -1 -1 -1 -1 -2 -2 -2 -2 -2 -1 -1 -1 -0 -0 0 0 0 -0 -0 -1 -1 -0 0 1 2 2 1 1 1 1 2 2 2 2 2 2 2 2 1 -0 -1 -2 -2 -2 -2 -1 -1 -0 0 1
-2 -1 -0 1 1 1 0 0 0 -0 -0 -0 -0 -0 -1 -1 -1 -1 -1 -1 -1 -1 -1 -1 -1 -2 -2 -1 -1 -1 -1 -1 -1 -0 0 0 0 0 -0 -1 -1 -1 -0 -0 0 0 1 1 1 1 1 2 2 2 2 2 2 2 1 1 -0 -1 -2 -3 -2 -2 -2 -2 -2
-2 -1 -1 0 1 0 0 -0 -0 -0 -0 0 0 0 -0 -1 -1 -1 -1 -1 -1 -0 -0 -1 -1 -1 -1 -1 -1 -1 -1 -1 -1 -1 -0 -0 0 -0 -0 -0 -1 -1 -1 -1 -1 -0 -0 0 1 1 1 1 1 2 2 2 2 2 2 1 1 0 -0 -1 -2 -3 -3 -3 -3
-2 -1 -1 0 1 0 -0 -1 -1 -0 0 0 1 0 0 -0 -1 -1 -1 -1 -1 -0 -0 -1 -1 -1 -1 -1 -0 -0 -1 -1 -1 -1 -1 -0 -0 -0 -0 -0 -1 -1 -1 -1 -1 -1 -1 -0 -0 -0 -0 0 1 1 1 1 1 1 1 1 1 1 1 1 -0 -1 -2 -2 -2
-1 -1 -0 1 1 0 -0 -1 -1 -0 -0 0 1 1 0 -0 -1 -1 -1 -1 -1 -1 -1 -1 -1 -1 -0 -0 -0 -0 -0 -1 -1 -1 -1 -1 -0 -0 -0 -1 -1 -1 -1 -2 -2 -2 -2 -1 -1 -1 -1 -1 -0 -0 -0 0 0 1 1 1 2 2 2 1 1 1 0 -0 -0
-0 -0 -0 0 1 0 -0 -1 -1 -1 -0 0 0 1 0 -0 -0 -1 -1 -1 -1 -1 -1 -1 -1 -1 -0 -0 -0 -1 -1 -1 -1 -1 -1 -1 -1 -1 -1 -1 -1 -1 -1 -1 -1 -2 -2 -2 -2 -1 -1 -1 -1 -1 -1 -1 -1 -0 0 1 1 2 2 2 2 2 1 1 1
0 -0 -0 0 0 -0 -0 -1 -1 -1 -0 0 0 1 0 -0 -0 -1 -1 -1 -1 -1 -1 -1 -1 -1 -1 -1 -1 -1 -1 -1 -0 -0 -0 -0 -0 -1 -1 -1 -0 0 1 1 -0 -1 -2 -2 -2 -2 -2 -1 -1 -1 -1 -1 -1 -1 -1 -0 -0 1 1 2 2 2 2 2 1
1 0 -0 -0 -0 -1 -1 -1 -1 -1 -0 0 0 0 -0 -1 -1 -1 -1 -0 -0 -0 -1 -1 -1 -1 -1 -1 -1 -1 -1 -1 -0 0 0 0 -0 -0 -1 -1 -0 0 1 1 0 -1 -1 -1 -2 -2 -2 -2 -2 -1 -1 -1 -1 -1 -1 -1 -0 0 1 1 2 2 2 1 1
1 0 -0 -1 -1 -1 -1 -1 -1 -0 0 1 0 -0 -1 -1 -1 -1 -1 0 0 -0 -1 -1 -1 -1 -1 -1 -1 -1 -1 -0 0 0 0 0 0 -0 -0 -0 -0 0 1 1 -0 -1 -1 -0 -1 -2 -2 -2 -2 -2 -1 -1 -1 -1 -1 -1 -0 0 0 1 1 1 1 1 1
1 0 -1 -2 -2 -2 -2 -1 -1 -0 0 0 -0 -1 -1 -1 -1 -1 -0 0 0 -0 -1 -1 -1 -1 -2 -2 -1 -1 -0 -0 0 0 0 0 0 -0 -0 -0 -0 0 0 -0 -1 -1 -1 0 -0 -1 -1 -1 -1 -1 -1 -1 -1 -0 -0 0 0 0 0 1 1 1 1 1 1
0 -1 -2 -3 -3 -3 -2 -2 -1 -0 0 -0 -1 -1 -1 -1 -1 -1 -1 -0 0 0 -0 -1 -1 -2 -2 -1 -1 -1 -0 -0 -0 -0 -0 -0 -0 -0 -0 -0 -0 0 0 -0 -2 -2 -1 1 0 0 0 0 0 0 -0 -0 0 0 0 1 1 1 1 1 1 1 1 1 1
-1 -2 -3 -3 -4 -3 -2 -1 -1 0 0 0 -0 -1 -1 -1 -2 -2 -1 -0 0 0 0 -0 -1 -2 -2 -1 -1 -0 -0 -0 -0 -1 -1 -1 -1 -0 -0 -0 0 0 0 -0 -1 -1 -0 1 0 -0 -0 -0 0 0 0 0 1 1 1 1 1 1 1 1 1 1 1 1 1
Height
3034 3033 3033 3033 3033 3034 3034 3034 3035 3035 3036 3036 3037 3038 3039 3040 3041 3041 3042 3043 3044 3045 3046 3047 3048 3049 3050 3051 3051 3052 3053 3054 3055 3056 3057 3058 3059 3060 3060 3061 3061 3061 3062 3063 3064 3065 3066 3067 3068 3069 3070 3071 3072 3072 3073 3074 3075 3076 3076 3077 3077 3078 3079 3080 3081 3082 3083 3084 3086
3032 3032 3032 3032 3032 3032 3032 3033 3033 3033 3034 3034 3035 3036 3037 3038 3039 3040 3041 3041 3042 3043 3044 3045 3046 3047 3048 3049 3049 3050 3051 3052 3053 3054 3055 3056 3057 3058 3058 3059 3059 3060 3060 3061 3062 3063 3064 3064 3066 3066 3067 3068 3069 3070 3071 3071 3072 3073 3074 3075 3076 3076 3077 3079 3080 3081 3082 3084 3085
3031 3031 3031 3031 3031 3031 3031 3031 3031 3032 3032 3033 3033 3034 3036 3036 3037 3038 3039 3039 3040 3041 3042 3042 3043 3045 3046 3046 3047 3048 3049 3050 3051 3052 3053 3054 3055 3056 3056 3057 3057 3058 3058 3059 3060 3061 3062 3062 3063 3064 3065 3066 3066 3067 3068 3069 3070 3071 3072 3073 3074 3075 3076 3077 3079 3080 3081 3083 3084
3030 3030 3030 3030 3030 3030 3030 3030 3030 3030 3031 3031 3032 3033 3034 3034 3035 3036 3037 3037 3038 3039 3040 3040 3041 3042 3043 3044 3045 3046 3047 3047 3048 3049 3050 3051 3052 3053 3054 3055 3056 3056 3056 3057 3058 3059 3060 3061 3061 3062 3063 3064 3064 3065 3066 3067 3068 3069 3070 3071 3072 3074 3075 3076 3077 3079 3080 3081 3083
3028 3028 3028 3029 3029 3029 3029 3029 3029 3029 3029 3030 3031 3031 3032 3032 3033 3034 3035 3035 3036 3037 3037 3038 3039 3040 3041 3042 3043 3044 3045 3045 3046 3047 3048 3049 3050 3051 3052 3053 3053 3054 3055 3056 3056 3057 3058 3058 3059 3060 3061 3062 3063 3063 3064 3065 3066 3067 3068 3070 3071 3072 3073 3075 3076 3077 3079 3080 3081
3027 3027 3027 3027 3027 3027 3027 3027 3027 3027 3027 3028 3029 3029 3030 3031 3031 3032 3033 3033 3034 3035 3036 3036 3037 3038 3039 3040 3041 3042 3043 3043 3044 3045 3046 3047 3047 3048 3050 3051 3051 3052 3053 3054 3054 3055 3056 3056 3057 3058 3059 3060 3061 3062 3062 3063 3065 3066 3067 3068 3069 3071 3072 3073 3075 3076 3077 3079 3080
3026 3026 3026 3026 3026 3026 3026 3026 3026 3026 3026 3027 3027 3027 3028 3029 3030 3031 3031 3031 3032 3033 3034 3034 3035 3036 3037 3038 3039 3040 3041 3042 3042 3043 3044 3045 3046 3046 3047 3048 3049 3050 3051 3051 3052 3053 3054 3055 3056 3057 3058 3059 3060 3060 3061 3062 3063 3064 3065 3066 3068 3069 3070 3071 3073 3074 3076 3077 3078
3025 3025 3024 3024 3025 3025 3025 3025 3025 3025 3025 3026 3026 3026 3026 3027 3028 3028 3029 3030 3030 3031 3031 3032 3033 3034 3035 3036 3037 3038 3039 3040 3041 3041 3042 3043 3044 3045 3046 3046 3047 3048 3049 3050 3051 3051 3052 3053 3054 3056 3056 3057 3058 3059 3059 3060 3061 3062 3063 3064 3066 3067 3068 3070 3071 3072 3074 3075 3076
3023 3023 3023 3023 3023 3023 3023 3023 3024 3024 3024 3024 3024 3024 3025 3026 3026 3026 3027 3028 3028 3029 3029 3030 3031 3032 3033 3034 3035 3036 3037 3038 3039 3040 3041 3041 3042 3043 3043 3045 3046 3047 3047 3048 3049 3050 3051 3052 3053 3054 3055 3056 3057 3057 3058 3058 3059 3060 3061 3062 3064 3065 3066 3067 3069 3070 3071 3072 3074
3022 3022 3022 3022 3022 3022 3022 3022 3022 3022 3022 3022 3023 3023 3023 3024 3024 3025 3025 3026 3026 3027 3028 3028 3029 3030 3031 3032 3033 3034 3036 3036 3037 3038 3039 3040 3041 3041 3042 3043 3044 3045 3046 3047 3048 3049 3050 3051 3051 3052 3053 3054 3055 3056 3056 3057 3057 3058 3059 3061 3062 3063 3064 3066 3067 3068 3069 3070 3071
3021 3021 3021 3021 3021 3021 3021 3021 3021 3021 3021 3021 3021 3021 3022 3022 3022 3023 3023 3024 3025 3026 3026 3026 3027 3028 3029 3030 3031 3032 3033 3035 3036 3036 3037 3038 3039 3040 3041 3041 3042 3043 3044 3046 3046 3047 3048 3049 3050 3051 3051 3052 3053 3054 3055 3055 3056 3056 3057 3058 3060 3061 3062 3063 3064 3066 3066 3068 3069
3020 3020 3020 3020 3020 3020 3020 3019 3019 3019 3019 3019 3020 3020 3020 3021 3021 3021 3021 3022 3023 3023 3024 3024 3025 3026 3026 3027 3028 3030 3031 3032 3033 3035 3035 3036 3037 3038 3039 3040 3041 3041 3042 3043 3045 3046 3046 3047 3048 3048 3049 3050 3051 3052 3053 3053 3054 3055 3056 3056 3057 3058 3060 3061 3062 3063 3064 3065 3066
3019 3019 3019 3019 3019 3019 3018 3018 3018 3018 3018 3018 3018 3018 3019 3019 3019 3019 3020 3021 3021 3021 3021 3022 3023 3024 3024 3025 3026 3027 3028 3030 3031 3032 3034 3035 3035 3036 3037 3038 3039 3040 3041 3041 3043 3044 3045 3046 3046 3047 3047 3048 3049 3050 3051 3051 3052 3053 3053 3054 3055 3056 3057 3059 3060 3061 3062 3063 3064
3018 3018 3018 3018 3018 3018 3017 3017 3017 3017 3016 3016 3016 3016 3017 3017 3017 3017 3018 3018 3019 3019 3020 3021 3021 3022 3022 3023 3024 3025 3026 3027 3028 3030 3031 3032 3034 3035 3035 3036 3037 3038 3039 3040 3041 3041 3042 3043 3044 3045 3046 3046 3047 3048 3049 3050 3050 3051 3051 3052 3053 3054 3055 3056 3058 3059 3060 3061 3062
3016 3016 3016 3017 3017 3016 3016 3016 3016 3016 3016 3015 3015 3015 3015 3016 3016 3016 3016 3016 3017 3017 3018 3019 3019 3020 3020 3021 3021 3022 3023 3024 3026 3027 3029 3030 3031 3032 3033 3034 3035 3036 3037 3037 3038 3039 3040 3041 3042 3043 3043 3044 3045 3046 3046 3047 3048 3049 3049 3050 3051 3052 3053 3054 3055 3056 3057 3059 3060
3015 3015 3015 3016 3016 3016 3016 3015 3015 3015 3015 3014 3014 3014 3014 3014 3014 3014 3015 3015 3015 3015 3016 3017 3017 3017 3018 3019 3019 3020 3021 3021 3023 3024 3026 3027 3028 3030 3031 3032 3033 3033 3034 3035 3036 3037 3038 3039 3040 3041 3041 3042 3043 3043 3044 3045 3046 3046 3047 3048 3049 3050 3051 3052 3053 3054 3055 3056 3057
3013 3014 3014 3014 3014 3014 3014 3014 3014 3014 3014 3014 3013 3013 3013 3012 3012 3012 3013 3013 3013 3014 3014 3014 3015 3015 3016 3017 3017 3018 3018 3019 3020 3021 3022 3024 3025 3026 3028 3029 3030 3031 3032 3032 3033 3034 3035 3036 3037 3038 3039 3040 3041 3041 3042 3043 3044 3044 3045 3046 3047 3048 3050 3050 3051 3052 3053 3054 3055
3012 3012 3012 3013 3013 3013 3013 3013 3013 3013 3013 3013 3012 3012 3011 3011 3011 3011 3011 3011 3011 3012 3012 3012 3013 3013 3014 3015 3015 3016 3016 3017 3017 3018 3019 3021 3022 3024 3025 3026 3027 3028 3030 3030 3031 3032 3032 3034 3035 3036 3036 3037 3038 3039 3040 3041 3041 3042 3043 3044 3045 3046 3047 3048 3049 3050 3051 3051 3053
3011 3011 3011 3011 3011 3011 3012 3012 3012 3012 3012 3011 3011 3011 3011 3010 3010 3009 3009 3009 3010 3010 3010 3011 3011 3011 3012 3012 3013 3013 3014 3015 3015 3016 3016 3017 3019 3020 3021 3023 3024 3025 3027 3028 3029 3029 3030 3031 3032 3033 3034 3035 3036 3036 3037 3038 3039 3040 3041 3042 3043 3044 3045 3046 3047 3048 3048 3049 3050
3009 3009 3009 3010 3010 3010 3010 3011 3011 3011 3011 3011 3010 3010 3010 3009 3009 3008 3008 3008 3008 3008 3008 3009 3009 3009 3010 3010 3011 3011 3011 3012 3012 3013 3014 3015 3016 3017 3018 3019 3021 3022 3023 3025 3026 3027 3028 3028 3029 3030 3031 3032 3033 3034 3035 3036 3036 3037 3038 3039 3041 3041 3042 3044 3045 3046 3046 3047 3048
3008 3008 3008 3008 3008 3009 3009 3009 3009 3009 3009 3009 3009 3009 3008 3008 3008 3007 3007 3006 3006 3006 3006 3006 3007 3007 3008 3008 3008 3009 3009 3010 3010 3011 3011 3012 3013 3014 3015 3016 3017 3019 3020 3021 3023 3024 3025 3026 3027 3027 3028 3029 3030 3031 3032 3033 3034 3035 3036 3037 3038 3039 3040 3041 3042 3043 3044 3045 3046
3006 3006 3006 3006 3007 3007 3007 3007 3008 3008 3008 3008 3008 3008 3007 3007 3006 3006 3006 3005 3005 3005 3004 3005 3005 3005 3006 3006 3006 3006 3007 3007 3008 3008 3009 3009 3010 3011 3012 3013 3014 3016 3017 3018 3020 3021 3022 3023 3024 3025 3026 3026 3027 3028 3029 3030 3031 3032 3033 3034 3035 3036 3037 3038 3039 3041 3041 3042 3043
3005 3005 3005 3005 3005 3006 3006 3006 3006 3006 3006 3006 3006 3006 3006 3006 3005 3005 3004 3004 3004 3003 3003 3003 3003 3003 3003 3004 3004 3005 3005 3005 3006 3006 3006 3007 3007 3008 3009 3010 3011 3012 3014 3015 3016 3017 3019 3020 3021 3022 3023 3024 3025 3026 3026 3027 3028 3029 3030 3031 3032 3033 3034 3036 3036 3038 3039 3040 3041
3003 3003 3004 3004 3004 3004 3004 3004 3004 3004 3005 3005 3005 3005 3005 3004 3004 3004 3003 3003 3002 3002 3002 3001 3001 3001 3001 3002 3002 3002 3003 3003 3003 3004 3004 3005 3005 3006 3006 3007 3008 3009 3011 3011 3013 3014 3016 3017 3018 3019 3020 3021 3022 3023 3024 3025 3026 3026 3027 3028 3029 3030 3031 3032 3034 3035 3036 3037 3038
3002 3002 3002 3002 3002 3002 3002 3002 3002 3003 3003 3003 3003 3003 3003 3003 3002 3002 3002 3001 3001 3001 3001 3000 3000 3000 3000 3000 3000 3001 3001 3001 3001 3002 3002 3002 3003 3003 3004 3005 3006 3006 3007 3009 3010 3011 3012 3014 3015 3016 3017 3018 3019 3020 3021 3022 3023 3023 3024 3025 3026 3027 3028 3029 3031 3031 3033 3034 3035
3000 3000 3000 3001 3001 3001 3001 3001 3001 3001 3001 3001 3001 3001 3001 3001 3001 3001 3000 3000 3000 3000 2999 2999 2999 2999 2998 2998 2999 2999 2999 2999 3000 3000 3000 3001 3001 3001 3002 3002 3003 3004 3005 3006 3007 3008 3009 3010 3011 3012 3014 3015 3016 3017 3018 3019 3020 3021 3021 3022 3023 3024 3025 3026 3027 3028 3030 3031 3032
2998 2998 2999 2999 2999 2999 2999 2999 2999 2999 2999 3000 3000 3000 3000 3000 2999 2999 2999 2998 2998 2998 2998 2998 2997 2997 2997 2997 2997 2997 2997 2997 2998 2998 2998 2999 2999 2999 3000 3000 3001 3001 3002 3003 3004 3005 3006 3007 3008 3010 3011 3011 3012 3013 3015 3016 3017 3018 3019 3020 3021 3021 3022 3023 3024 3025 3026 3028 3029
2996 2997 2997 2997 2997 2997 2997 2997 2997 2997 2997 2998 2998 2998 2998 2998 2998 2997 2997 2997 2996 2996 2996 2996 2996 2996 2996 2996 2996 2996 2996 2996 2996 2996 2996 2997 2997 2997 2998 2998 2999 2999 3000 3001 3002 3003 3004 3005 3006 3007 3008 3009 3010 3011 3011 3012 3014 3015 3016 3017 3018 3019 3020 3021 3021 3022 3024 3025 3026
2995 2995 2995 2995 2996 2996 2996 2996 2996 2996 2996 2996 2996 2996 2996 2996 2996 2996 2996 2995 2995 2995 2995 2995 2995 2994 2994 2994 2994 2994 2994 2994 2994 2994 2995 2995 2995 2995 2996 2996 2996 2997 2997 2998 2999 3000 3001 3002 3003 3004 3005 3006 3006 3007 3009 3010 3011 3012 3013 3014 3015 3016 3017 3018 3019 3020 3021 3022 3023
2992 2993 2993 2993 2994 2994 2994 2994 2994 2994 2994 2994 2995 2995 2995 2995 2994 2994 2994 2993 2993 2993 2993 2993 2993 2993 2992 2992 2992 2992 2992 2992 2992 2993 2993 2993 2993 2993 2994 2994 2995 2995 2996 2996 2997 2997 2998 2999 3000 3001 3002 3003 3004 3005 3006 3006 3008 3009 3010 3011 3012 3013 3015 3016 3016 3017 3018 3019 3021
2990 2991 2991 2991 2992 2992 2992 2992 2992 2992 2992 2993 2993 2993 2993 2993 2993 2992 2992 2992 2991 2991 2991 2991 2991 2991 2991 2991 2991 2991 2991 2991 2991 2991 2991 2991 2991 2991 2992 2992 2993 2993 2993 2994 2995 2995 2996 2997 2998 2999 2999 3000 3001 3002 3003 3004 3005 3006 3007 3008 3009 3011 3012 3013 3014 3015 3016 3017 3018
2988 2989 2989 2989 2990 2990 2990 2990 2991 2991 2991 2991 2991 2991 2991 2991 2991 2991 2991 2990 2990 2990 2990 2990 2989 2989 2989 2989 2989 2989 2989 2989 2989 2989 2989 2990 2990 2990 2990 2991 2991 2991 2991 2992 2993 2993 2994 2995 2996 2996 2997 2998 2998 2999 3000 3001 3002 3003 3004 3005 3006 3008 3009 3010 3011 3012 3014 3015 3016
2986 2986 2987 2987 2987 2988 2988 2988 2988 2989 2989 2989 2990 2990 2990 2990 2989 2989 2989 2989 2988 2988 2988 2988 2988 2987 2987 2987 2987 2987 2987 2987 2987 2987 2988 2988 2988 2988 2989 2989 2989 2990 2990 2991 2991 2991 2992 2993 2993 2994 2995 2996 2996 2997 2998 2999 3000 3001 3002 3003 3004 3005 3006 3007 3009 3010 3011 3012 3013
2984 2984 2985 2985 2985 2986 2986 2986 2986 2987 2987 2987 2988 2988 2988 2988 2988 2987 2987 2987 2987 2987 2986 2986 2986 2986 2986 2986 2986 2986 2986 2986 2986 2986 2986 2986 2986 2987 2987 2987 2988 2988 2988 2989 2989 2990 2991 2991 2992 2992 2993 2994 2994 2995 2996 2997 2998 2999 3000 3001 3002 3003 3004 3005 3006 3007 3008 3010 3011
2981 2982 2982 2983 2983 2983 2984 2984 2984 2985 2985 2986 2986 2986 2986 2986 2986 2986 2986 2986 2985 2985 2985 2985 2985 2985 2984 2984 2984 2984 2984 2984 2984 2984 2984 2985 2985 2985 2985 2986 2986 2986 2987 2987 2988 2989 2989 2990 2990 2991 2991 2992 2993 2994 2994 2995 2996 2997 2998 2999 3000 3001 3002 3003 3004 3005 3006 3007 3009
2979 2980 2980 2981 2981 2981 2981 2982 2982 2983 2983 2984 2984 2984 2984 2984 2984 2984 2984 2984 2984 2984 2983 2983 2983 2983 2983 2982 2982 2982 2982 2982 2982 2982 2982 2983 2983 2983 2984 2984 2985 2985 2986 2986 2986 2987 2988 2988 2989 2989 2990 2991 2991 2992 2993 2994 2995 2996 2996 2997 2998 2999 3000 3001 3002 3003 3004 3005 3006
2977 2977 2978 2978 2978 2979 2979 2980 2980 2981 2981 2981 2982 2982 2982 2982 2982 2982 2982 2982 2982 2982 2982 2981 2981 2981 2981 2981 2981 2980 2980 2980 2980 2980 2981 2981 2981 2981 2982 2982 2983 2984 2984 2984 2985 2985 2986 2987 2987 2988 2988 2989 2990 2991 2991 2992 2993 2994 2995 2996 2997 2998 2999 3000 3001 3001 3002 3003 3004
2974 2975 2975 2976 2976 2976 2977 2977 2978 2979 2979 2980 2980 2980 2980 2980 2980 2980 2980 2980 2980 2980 2980 2980 2979 2979 2979 2979 2979 2978 2978 2978 2979 2979 2979 2979 2979 2980 2980 2981 2981 2982 2982 2983 2983 2984 2985 2985 2986 2986 2987 2987 2988 2989 2990 2991 2991 2992 2993 2994 2995 2996 2997 2998 2999 3000 3001 3001 3002
2971 2972 2973 2973 2974 2974 2975 2975 2976 2976 2977 2977 2977 2978 2978 2978 2978 2978 2978 2978 2978 2978 2978 2978 2978 2977 2977 2977 2977 2976 2976 2976 2977 2977 2977 2977 2977 2978 2978 2979 2979 2980 2981 2981 2981 2982 2983 2984 2984 2985 2985 2986 2986 2987 2988 2989 2990 2991 2991 2992 2993 2994 2996 2996 2997 2998 2999 2999 3000
2969 2970 2970 2971 2971 2972 2972 2973 2974 2974 2975 2975 2975 2975 2976 2976 2976 2976 2976 2976 2976 2976 2976 2976 2976 2976 2975 2975 2975 2975 2975 2975 2975 2975 2975 2975 2975 2976 2976 2977 2977 2978 2979 2979 2979 2980 2981 2982 2982 2983 2983 2984 2985 2985 2986 2987 2988 2988 2989 2990 2991 2992 2993 2994 2995 2996 2997 2997 2998
2966 2967 2968 2968 2969 2970 2971 2971 2972 2972 2972 2973 2973 2973 2973 2973 2974 2974 2974 2974 2974 2974 2974 2974 2974 2974 2973 2973 2973 2973 2973 2973 2973 2973 2973 2973 2973 2974 2974 2975 2975 2976 2976 2977 2977 2978 2979 2980 2981 2981 2981 2982 2982 2983 2984 2985 2986 2986 2987 2988 2989 2990 2991 2992 2993 2994 2995 2995 2996